星链-2291 (STARLINK-2291 )

导读

STARLINK-2291是美国SpaceX星链星座中的一员,于2021年3月14日发射升空,属于低轨通信卫星。星链项目旨在为全球提供高速宽带互联网服务,该卫星采用平板设计与氪霍尔推进技术,具备自主避撞能力,服役寿命约5-7年,退役后会主动离轨坠入大气层焚毁,目前已在轨运行近5年,支撑全球卫星互联网服务。

基本信息
目录编号:
47862
目录名称:
STARLINK-2291
国际标识:
2021-021C
轨道中心:
EARTH
卫星名称:
星链-2291
卫星全名:
星链-2291 (STARLINK-2291 )
卫星状态:
在轨 (已飞行2007 天)
发射日期:
2021-03-14 UTC
国别 :
美国 (US)
星等 :
--
该卫星已列入 空间交会检测服务 Space Conjunction Data Service (SCDS) ,当前飞行风险评估等级: 无高风险
轨道信息
数据来源 国际轨道数据
星历时间: 2026-09-11T09:10:47+0800
8小时前
查看轨道信息
半长轴: 6590.856km
偏心率: 0.0011674
轨道倾角: 53.139°
近地点辐角 282.800°
升交点赤经 71.792°
平近点角 77.173°
近地点: 205.024km
远地点: 220.414km
周期: 88.751分钟
每日圈数: 16.225199
详细信息
固有亮度:
5
最大亮度:
2.5
卫星平台:
Starlink V1.0
覆盖范围:
全球
运营商:
太空探索技术公司
运营商所在国:
美国
制造商(研发单位):
太空探索技术公司
制造商所在国:
美国
使用方式:
暂无
卫星简介
星链(Starlink)计划是由太空探索技术公司(SpaceX)提出的一个巨型低轨卫星互联网星座项目,计划在2019年至2024年间在太空搭建由约1.2万颗卫星组成的“星链”网络,其中1584颗将部署在地球上空550千米处的近地轨道,并从2020年开始工作。该卫星仍在工作。
2D轨道图
3D轨道图
轨道高度分析图
轨道倾角分析图
轨道综合分析图
查看轨道综合分析图
与全量物体交会距离演化趋势
与全量物体交会风险概率演化趋势